This demonstration page uses our WeatherBlox Daily Observations layout. Learn more.

Left ArrowRight Arrow

38.80484, -77.04692

Hourly Observations for September 27, 2020

Temp ( °F °C ) Dew Point ( °F °C ) Humidity (%) Winds ( mph kmh ) Pressure ( in mb ) Visibility ( mi km ) Precip ( " mm )
12:52 am 00:52 Cloudy with Drizzle 69 20.6 67 19.4 93 93 N 5 7 29.98 1015 6 10 0.00 0.00
1:03 am 01:03 Cloudy with Light Rain 69 20.6 67 19.4 93 93 N N/A 29.98 1015 6 10 0.00 0.00
1:24 am 01:24 Cloudy with Light Rain 69 20.6 67 19.4 93 93 N N/A 29.98 1015 4 6 0.00 0.00
1:34 am 01:34 Cloudy with Drizzle 69 20.6 67 19.4 93 93 N N/A 29.98 1015 3 4 0.01 0.25
1:52 am 01:52 Cloudy with Drizzle 69 20.6 67 19.4 93 93 N N/A 29.97 1015 3 4 0.01 0.25
2:52 am 02:52 Cloudy with Drizzle 68 20 67 19.4 96 96 N N/A 29.96 1015 3 4 0.00 0.00
2:59 am 02:59 Cloudy with Mist and Fog 68 20 67 19.4 96 96 NNW 3 6 29.97 1015 4 6 0.00 0.00
3:52 am 03:52 Cloudy with Mist and Fog 69 20.6 67 19.4 93 93 NNW 5 7 29.96 1015 4 6 0.00 0.00
4:26 am 04:26 Cloudy with Drizzle 68 20 67 19.4 96 96 NW 6 9 29.97 1015 3 4 0.00 0.00
4:32 am 04:32 Cloudy with Drizzle 68 20 67 19.4 96 96 NNW 7 11 29.97 1015 2 3 0.00 0.00
4:52 am 04:52 Cloudy with Drizzle 68 20 67 19.4 96 96 NNW 5 7 29.96 1015 2 3 0.01 0.25
5:07 am 05:07 Cloudy with Drizzle 68 20 67 19.4 96 96 NNW 6 9 29.97 1015 2 3 0.01 0.25
5:47 am 05:47 Cloudy with Drizzle 68 20 66 19 94 94 NW 6 9 29.97 1015 2 3 0.03 0.76
5:52 am 05:52 Cloudy with Drizzle 68 20 66 18.9 93 93 NNW 6 9 29.97 1015 2 3 0.03 0.76
5:55 am 05:55 Cloudy with Drizzle 68 20 66 18.9 93 93 NW 6 9 29.97 1015 3 5 0.00 0.00
6:22 am 06:22 Cloudy 68 20 66 18.9 93 93 NNW 6 9 29.98 1015 7 11 0.00 0.00
6:49 am 06:49 Cloudy with Mist and Fog 68 20 66 19 94 94 NNW 6 9 29.98 1015 6 10 0.00 0.00
6:52 am 06:52 Cloudy with Mist and Fog 68 20 66 18.9 93 93 NNW 7 11 29.98 1015 5 8 0.00 0.00
7:52 am 07:52 Cloudy 68 20 66 18.9 93 93 NNW 6 9 29.99 1016 9 14 N/A
8:34 am 08:34 Mostly Cloudy 69 20.6 67 19.4 93 93 NNW 5 7 29.99 1016 8 13 N/A
8:52 am 08:52 Mostly Cloudy 70 21.1 67 19.4 90 90 N 3 6 30.00 1016 10 16 N/A
9:52 am 09:52 Cloudy 71 21.7 67 19.4 87 87 N N/A 30.00 1016 10 16 N/A
10:52 am 10:52 Mostly Cloudy 73 22.8 67 19.4 81 81 N N/A 30.00 1016 10 16 N/A
10:59 am 10:59 Mostly Cloudy 73 22.8 67 19.4 81 81 N N/A 30.00 1016 10 16 N/A
11:52 am 11:52 Mostly Cloudy 74 23.3 67 19.4 79 79 N N/A 29.99 1016 10 16 N/A
12:52 pm 12:52 Cloudy 74 23.3 67 19.4 79 79 N N/A 29.97 1015 10 16 N/A
1:52 pm 13:52 Cloudy 75 23.9 68 20 79 79 E 3 6 29.95 1014 10 16 N/A
2:52 pm 14:52 Mostly Cloudy 77 25 67 19.4 71 71 N N/A 29.92 1013 10 16 N/A
3:52 pm 15:52 Mostly Cloudy 77 25 66 18.9 69 69 SSE 5 7 29.91 1013 10 16 N/A
4:52 pm 16:52 Cloudy 75 23.9 68 20 79 79 SSE 5 7 29.90 1013 10 16 N/A
5:52 pm 17:52 Mostly Cloudy 74 23.3 68 20 82 82 S 6 9 29.90 1013 10 16 N/A
6:52 pm 18:52 Mostly Cloudy 73 22.8 67 19.4 81 81 S 6 9 29.89 1012 10 16 N/A
7:52 pm 19:52 Partly Cloudy 72 22.2 67 19.4 84 84 S 5 7 29.90 1013 10 16 N/A
8:52 pm 20:52 Mostly Cloudy 71 21.7 67 19.4 87 87 SSE 3 6 29.92 1013 10 16 N/A
9:52 pm 21:52 Cloudy 70 21.1 68 20 93 93 S 5 7 29.92 1013 10 16 N/A
10:52 pm 22:52 Cloudy 69 20.6 67 19.4 93 93 S 6 9 29.92 1013 10 16 N/A
11:52 pm 23:52 Cloudy 69 20.6 67 19.4 93 93 S 6 9 29.91 1013 10 16 N/A

Powered by AerisWeather